Madison, SD

8:05 AM CDT on May 28, 2017 (GMT -0500)
Madison Municipal

Weather History for KMDS - December, 2012

Change the Weather History Date:

Thursday, December 6, 2012

  Actual Average Record
Temperature  
Mean Temperature 38 °F -  
Max Temperature 48 °F 29 °F 48 °F (2012)
Min Temperature 28 °F 9 °F -13 °F (2013)
Degree Days  
Heating Degree Days 27    
Moisture  
Dew Point 26 °F    
Average Humidity 62    
Maximum Humidity 80    
Minimum Humidity 37    
Precipitation  
Precipitation 0.00 in - - ()
Sea Level Pressure  
Sea Level Pressure 29.90 in    
Wind  
Wind Speed 15 mph (NNW)    
Max Wind Speed 22 mph    
Max Gust Speed 31 mph    
Visibility 10 miles    
Events Rain    
Averages and records for this station are not official NWS values.
T = Trace of Precipitation, MM = Missing Value Source: NWS Daily Summary

Daily Weather History Graph

Daily Weather History Graph

Search for Another Location

Airport or City:

Trip Planner

Search our weather history database for the weather conditions in past years. The results will help you decide how hot, cold, wet, or windy it might be!

Date:

Astronomy

Dec. 06, 2012 Rise Set
Actual Time 7:48 AM CST 4:50 PM CST
Civil Twilight 7:16 AM CST 5:23 PM CST
Nautical Twilight 6:39 AM CST 5:59 PM CST
Astronomical Twilight 6:04 AM CST 6:34 PM CST
Moon No Moon Rise 12:30 PM CST (12/6)
Length of Visible Light 10h 06m
Length of Day
9h 01m
Waning Gibbous, 49% of the Moon is Illuminated
Dec 6
Waning Gibbous
Dec 13
New
Dec 19
First Quarter
Dec 28
Full
Jan 4
Last Quarter

Hourly Weather History & Observations

Time (CST) Temp. Windchill Dew Point Humidity Pressure Visibility Wind Dir Wind Speed Gust Speed Precip Events Conditions
12:00 AM 48.2 °F - 23.0 °F 37% 29.69 in 10.0 mi SSW 17.3 mph 26.5 mph N/A   Mostly Cloudy
12:20 AM 48.2 °F - 23.0 °F 37% 29.69 in 10.0 mi SSW 18.4 mph 26.5 mph N/A   Overcast
12:40 AM 48.2 °F - 23.0 °F 37% 29.70 in 10.0 mi SW 16.1 mph 20.7 mph N/A   Overcast
1:00 AM 48.2 °F - 23.0 °F 37% 29.70 in 10.0 mi SW 15.0 mph 19.6 mph N/A   Overcast
1:20 AM 48.2 °F - 24.8 °F 40% 29.71 in 10.0 mi WSW 11.5 mph 18.4 mph N/A   Overcast
1:40 AM 48.2 °F - 24.8 °F 40% 29.71 in 10.0 mi West 11.5 mph - N/A   Overcast
2:00 AM 46.4 °F 41.5 °F 26.6 °F 46% 29.72 in 10.0 mi West 10.4 mph - N/A   Overcast
2:20 AM 44.6 °F 38.4 °F 26.6 °F 49% 29.75 in 10.0 mi WNW 12.7 mph 21.9 mph N/A   Overcast
2:40 AM 44.6 °F 37.4 °F 26.6 °F 49% 29.76 in 10.0 mi NW 16.1 mph 20.7 mph N/A Rain Light Rain
3:00 AM 41.0 °F 32.2 °F 32.0 °F 70% 29.77 in 10.0 mi NW 18.4 mph - N/A Rain Light Rain
3:20 AM 41.0 °F 32.5 °F 32.0 °F 70% 29.78 in 10.0 mi NNW 17.3 mph 23.0 mph N/A Rain Light Rain
3:40 AM 42.8 °F 34.5 °F 33.8 °F 70% 29.78 in 10.0 mi North 18.4 mph 31.1 mph N/A Rain Light Rain
4:00 AM 42.8 °F 35.4 °F 32.0 °F 66% 29.79 in 10.0 mi NNW 15.0 mph - N/A   Overcast
4:20 AM 42.8 °F 35.1 °F 32.0 °F 66% 29.80 in 10.0 mi NNW 16.1 mph 20.7 mph N/A   Mostly Cloudy
4:40 AM 41.0 °F 32.5 °F 28.4 °F 61% 29.81 in 10.0 mi NNW 17.3 mph 25.3 mph N/A   Partly Cloudy
5:00 AM 41.0 °F 32.8 °F 28.4 °F 61% 29.82 in 10.0 mi NNW 16.1 mph 20.7 mph N/A   Clear
5:20 AM 39.2 °F 32.0 °F 28.4 °F 65% 29.82 in 10.0 mi NNW 11.5 mph - N/A   Clear
6:00 AM 39.2 °F 30.8 °F 28.4 °F 65% 29.86 in 10.0 mi NW 15.0 mph - N/A   Mostly Cloudy
6:20 AM 39.2 °F 31.2 °F 26.6 °F 61% 29.87 in 10.0 mi NW 13.8 mph - N/A   Overcast
6:40 AM 39.2 °F 30.2 °F 26.6 °F 61% 29.88 in 10.0 mi NW 17.3 mph 24.2 mph N/A   Overcast
7:00 AM 37.4 °F 27.5 °F 26.6 °F 65% 29.88 in 10.0 mi NW 18.4 mph 25.3 mph N/A   Scattered Clouds
7:20 AM 35.6 °F 25.9 °F 26.6 °F 70% 29.89 in 10.0 mi NNW 16.1 mph 21.9 mph N/A   Scattered Clouds
7:40 AM 35.6 °F 25.5 °F 26.6 °F 70% 29.89 in 10.0 mi NNW 17.3 mph - N/A   Partly Cloudy
8:00 AM 37.4 °F 27.8 °F 26.6 °F 65% 29.89 in 10.0 mi NNW 17.3 mph 21.9 mph N/A   Clear
8:20 AM 35.6 °F 26.2 °F 26.6 °F 70% 29.90 in 10.0 mi NNW 15.0 mph 23.0 mph N/A   Clear
8:40 AM 35.6 °F 27.1 °F 26.6 °F 70% 29.91 in 10.0 mi NNW 12.7 mph 18.4 mph N/A   Clear
9:00 AM 37.4 °F 28.9 °F 26.6 °F 65% 29.92 in 10.0 mi NNW 13.8 mph 19.6 mph N/A   Clear
9:20 AM 39.2 °F 29.3 °F 26.6 °F 61% 29.92 in 10.0 mi NNW 20.7 mph 24.2 mph N/A   Clear
9:40 AM 39.2 °F 29.0 °F 26.6 °F 61% 29.93 in 10.0 mi NNW 21.9 mph 27.6 mph N/A   Clear
10:00 AM 39.2 °F 29.3 °F 26.6 °F 61% 29.93 in 10.0 mi NNW 20.7 mph 26.5 mph N/A   Clear
10:20 AM 39.2 °F 30.5 °F 28.4 °F 65% 29.94 in 10.0 mi NNW 16.1 mph - N/A   Clear
10:40 AM 41.0 °F 31.9 °F 28.4 °F 61% 29.94 in 10.0 mi NW 19.6 mph 27.6 mph N/A   Clear
11:00 AM 41.0 °F 32.2 °F 28.4 °F 61% 29.94 in 10.0 mi NW 18.4 mph - N/A   Partly Cloudy
11:20 AM 41.0 °F 32.5 °F 26.6 °F 57% 29.95 in 10.0 mi NNW 17.3 mph 23.0 mph N/A   Scattered Clouds
11:40 AM 41.0 °F 31.6 °F 26.6 °F 57% 29.94 in 10.0 mi NW 20.7 mph 24.2 mph N/A   Partly Cloudy
12:00 PM 39.2 °F 29.8 °F 26.6 °F 61% 29.94 in 10.0 mi NW 18.4 mph 21.9 mph N/A   Partly Cloudy
12:20 PM 39.2 °F 29.8 °F 26.6 °F 61% 29.94 in 10.0 mi NW 18.4 mph - N/A   Partly Cloudy
12:40 PM 39.2 °F 29.8 °F 26.6 °F 61% 29.93 in 10.0 mi NW 18.4 mph 23.0 mph N/A   Scattered Clouds
1:00 PM 39.2 °F 29.8 °F 26.6 °F 61% 29.93 in 10.0 mi NW 18.4 mph 23.0 mph N/A   Clear
1:20 PM 41.0 °F 31.9 °F 26.6 °F 57% 29.94 in 10.0 mi NW 19.6 mph - N/A   Clear
1:40 PM 39.2 °F 29.3 °F 26.6 °F 61% 29.94 in 10.0 mi NW 20.7 mph 25.3 mph N/A   Clear
2:00 PM 39.2 °F 29.6 °F 24.8 °F 56% 29.94 in 10.0 mi NW 19.6 mph 25.3 mph N/A   Clear
2:20 PM 39.2 °F 30.5 °F 24.8 °F 56% 29.94 in 10.0 mi NW 16.1 mph 25.3 mph N/A   Clear
2:40 PM 41.0 °F 32.2 °F 24.8 °F 53% 29.95 in 10.0 mi NW 18.4 mph 21.9 mph N/A   Clear
3:00 PM 39.2 °F 30.2 °F 24.8 °F 56% 29.95 in 10.0 mi NW 17.3 mph - N/A   Clear
3:20 PM 39.2 °F 30.5 °F 24.8 °F 56% 29.95 in 10.0 mi NW 16.1 mph - N/A   Partly Cloudy
3:40 PM 39.2 °F 30.5 °F 24.8 °F 56% 29.96 in 10.0 mi NNW 16.1 mph 20.7 mph N/A   Partly Cloudy
4:00 PM 39.2 °F 30.8 °F 23.0 °F 52% 29.96 in 10.0 mi NW 15.0 mph - N/A   Clear
4:20 PM 37.4 °F 28.9 °F 23.0 °F 56% 29.96 in 10.0 mi NW 13.8 mph - N/A   Partly Cloudy
4:40 PM 37.4 °F 30.8 °F 23.0 °F 56% 29.95 in 10.0 mi NNW 9.2 mph - N/A   Mostly Cloudy
5:00 PM 35.6 °F 29.9 °F 23.0 °F 60% 29.95 in 10.0 mi NW 6.9 mph - N/A   Mostly Cloudy
5:20 PM 35.6 °F 31.7 °F 24.8 °F 65% 29.95 in 10.0 mi NW 4.6 mph - N/A   Mostly Cloudy
5:40 PM 33.8 °F 27.0 °F 24.8 °F 70% 29.96 in 10.0 mi NW 8.1 mph - N/A   Overcast
6:00 PM 35.6 °F 29.9 °F 24.8 °F 65% 29.96 in 10.0 mi NNW 6.9 mph - N/A   Overcast
6:20 PM 35.6 °F 29.9 °F 24.8 °F 65% 29.97 in 10.0 mi North 6.9 mph - N/A   Overcast
6:40 PM 33.8 °F 28.6 °F 24.8 °F 70% 29.97 in 10.0 mi North 5.8 mph - N/A   Overcast
7:00 PM 33.8 °F 30.8 °F 24.8 °F 70% 29.97 in 10.0 mi NNW 3.5 mph - N/A   Overcast
7:20 PM 33.8 °F - 24.8 °F 70% 29.97 in 10.0 mi Calm Calm - N/A   Overcast
7:40 PM 33.8 °F 30.8 °F 24.8 °F 70% 29.98 in 10.0 mi NW 3.5 mph - N/A   Overcast
8:20 PM 32.0 °F 27.5 °F 24.8 °F 75% 29.98 in 10.0 mi NNW 4.6 mph - N/A   Overcast
8:40 PM 32.0 °F 28.7 °F 24.8 °F 75% 29.99 in 10.0 mi North 3.5 mph - N/A   Overcast
9:00 PM 32.0 °F 28.7 °F 24.8 °F 75% 29.99 in 10.0 mi NNE 3.5 mph - N/A   Overcast
9:20 PM 32.0 °F 28.7 °F 24.8 °F 75% 29.99 in 10.0 mi NNE 3.5 mph - N/A   Overcast
9:40 PM 32.0 °F 27.5 °F 24.8 °F 75% 29.98 in 10.0 mi NE 4.6 mph - N/A   Overcast
10:00 PM 32.0 °F 26.4 °F 24.8 °F 75% 29.98 in 10.0 mi NE 5.8 mph - N/A   Overcast
10:20 PM 30.2 °F 25.4 °F 24.8 °F 80% 29.98 in 10.0 mi NE 4.6 mph - N/A   Overcast
10:40 PM 32.0 °F 26.4 °F 23.0 °F 69% 29.98 in 10.0 mi NNE 5.8 mph - N/A   Overcast
11:00 PM 28.4 °F 21.2 °F 23.0 °F 80% 29.99 in 10.0 mi NNE 6.9 mph - N/A   Overcast
11:20 PM 28.4 °F 20.4 °F 23.0 °F 80% 29.99 in 10.0 mi NNE 8.1 mph - N/A   Overcast
11:40 PM 28.4 °F 21.2 °F 23.0 °F 80% 29.99 in 10.0 mi NNE 6.9 mph - N/A   Overcast